| time (UTC) | temp F | wind direction | speed MPH | gust MPH | rain 1hr in | rain 24hr in | rain mn in | humidity % | barometer mb |
| 20260510152521 | 55 | 11 | 0.0 | 2.0 | 0.00 | 0.00 | 0.00 | 58 | 1016.2 |
| 20260510152024 | 54 | 11 | 0.0 | 2.0 | 0.00 | 0.00 | 0.00 | 56 | 1016.2 |
| 20260510151610 | 53 | 27 | 0.0 | 2.0 | 0.00 | 0.00 | 0.00 | 58 | 1016.2 |
| 20260510151025 | 53 | 360 | 0.0 | 2.0 | 0.00 | 0.00 | 0.00 | 59 | 1016.3 |
| 20260510150538 | 52 | 73 | 0.0 | 2.0 | 0.00 | 0.00 | 0.00 | 61 | 1016.6 |
| 20260510150130 | 52 | 58 | 0.0 | 2.0 | 0.00 | 0.00 | 0.00 | 61 | 1016.6 |
| 20260510145512 | 51 | 319 | 0.0 | 0.0 | 0.00 | 0.00 | 0.00 | 65 | 1016.5 |
| 20260510145020 | 50 | 315 | 0.0 | 0.0 | 0.00 | 0.00 | 0.00 | 67 | 1016.6 |
| 20260510144632 | 50 | 315 | 0.0 | 0.0 | 0.00 | 0.00 | 0.00 | 65 | 1016.6 |
| 20260510144017 | 50 | 315 | 0.0 | 0.0 | 0.00 | 0.00 | 0.00 | 66 | 1016.4 |
| 20260510143539 | 49 | 315 | 0.0 | 2.0 | 0.00 | 0.00 | 0.00 | 67 | 1016.4 |
| 20260510143110 | 49 | 316 | 0.0 | 2.0 | 0.00 | 0.00 | 0.00 | 67 | 1016.3 |
| 20260510142532 | 50 | 316 | 0.0 | 2.0 | 0.00 | 0.00 | 0.00 | 66 | 1016.6 |
| 20260510142041 | 50 | 315 | 1.0 | 2.0 | 0.00 | 0.00 | 0.00 | 65 | 1016.6 |
| 20260510141627 | 49 | 237 | 0.0 | 2.0 | 0.00 | 0.00 | 0.00 | 65 | 1016.4 |
| 20260510141032 | 49 | 325 | 0.0 | 2.0 | 0.00 | 0.00 | 0.00 | 68 | 1016.4 |
| 20260510140612 | 49 | 325 | 0.0 | 3.0 | 0.00 | 0.00 | 0.00 | 69 | 1016.8 |
| 20260510140143 | 48 | 325 | 1.0 | 3.0 | 0.00 | 0.00 | 0.00 | 69 | 1016.6 |
| 20260510135529 | 48 | 270 | 0.0 | 2.0 | 0.00 | 0.00 | 0.00 | 71 | 1016.5 |
| 20260510135014 | 47 | 270 | 0.0 | 3.0 | 0.00 | 0.00 | 0.00 | 73 | 1016.4 |
| 20260510134719 | 47 | 257 | 1.0 | 3.0 | 0.00 | 0.00 | 0.00 | 74 | 1016.4 |
| 20260510134029 | 46 | 256 | 2.0 | 4.0 | 0.00 | 0.00 | 0.00 | 74 | 1016.6 |
| 20260510133531 | 46 | 246 | 2.0 | 3.0 | 0.00 | 0.00 | 0.00 | 73 | 1016.6 |
| 20260510133040 | 46 | 254 | 2.0 | 3.0 | 0.00 | 0.00 | 0.00 | 73 | 1016.8 |
| 20260510132556 | 46 | 273 | 1.0 | 2.0 | 0.00 | 0.00 | 0.00 | 74 | 1016.8 |
| 20260510132021 | 46 | 269 | 0.0 | 2.0 | 0.00 | 0.00 | 0.00 | 74 | 1016.8 |
| 20260510131636 | 46 | 289 | 0.0 | 3.0 | 0.00 | 0.00 | 0.00 | 74 | 1016.7 |
| 20260510131038 | 46 | 257 | 1.0 | 3.0 | 0.00 | 0.00 | 0.00 | 74 | 1016.7 |
| 20260510130540 | 46 | 257 | 0.0 | 3.0 | 0.00 | 0.00 | 0.00 | 74 | 1016.6 |
| 20260510130133 | 46 | 257 | 1.0 | 3.0 | 0.00 | 0.00 | 0.00 | 74 | 1016.6 |
| 20260510125540 | 46 | 254 | 1.0 | 2.0 | 0.00 | 0.00 | 0.00 | 74 | 1016.7 |
| 20260510125035 | 45 | 267 | 0.0 | 3.0 | 0.00 | 0.00 | 0.00 | 73 | 1016.8 |
| 20260510124610 | 46 | 267 | 0.0 | 3.0 | 0.00 | 0.00 | 0.00 | 72 | 1016.6 |
| 20260510124034 | 46 | 267 | 1.0 | 3.0 | 0.00 | 0.00 | 0.00 | 72 | 1016.7 |
| 20260510123541 | 46 | 277 | 1.0 | 3.0 | 0.00 | 0.00 | 0.00 | 72 | 1016.8 |
| 20260510123037 | 46 | 265 | 1.0 | 3.0 | 0.00 | 0.00 | 0.00 | 73 | 1016.8 |
| 20260510122540 | 46 | 259 | 1.0 | 3.0 | 0.00 | 0.00 | 0.00 | 73 | 1016.8 |
| 20260510122038 | 46 | 246 | 2.0 | 3.0 | 0.00 | 0.00 | 0.00 | 72 | 1016.8 |
| 20260510121601 | 46 | 297 | 1.0 | 3.0 | 0.00 | 0.00 | 0.00 | 71 | 1016.8 |
| 20260510121025 | 46 | 254 | 1.0 | 3.0 | 0.00 | 0.00 | 0.00 | 72 | 1016.8 |
| 20260510120524 | 46 | 265 | 1.0 | 3.0 | 0.00 | 0.00 | 0.00 | 71 | 1016.7 |
| 20260510120043 | 46 | 269 | 1.0 | 3.0 | 0.00 | 0.00 | 0.00 | 70 | 1016.8 |
| 20260510115534 | 46 | 309 | 1.0 | 3.0 | 0.00 | 0.00 | 0.00 | 70 | 1016.7 |
| 20260510115035 | 46 | 281 | 1.0 | 4.0 | 0.00 | 0.00 | 0.00 | 71 | 1016.8 |
| 20260510114610 | 46 | 294 | 1.0 | 4.0 | 0.00 | 0.00 | 0.00 | 71 | 1016.8 |
| 20260510114037 | 46 | 259 | 2.0 | 3.0 | 0.00 | 0.00 | 0.00 | 70 | 1016.8 |
| 20260510113532 | 47 | 257 | 1.0 | 3.0 | 0.00 | 0.00 | 0.00 | 69 | 1016.8 |
| 20260510113116 | 47 | 295 | 0.0 | 3.0 | 0.00 | 0.00 | 0.00 | 69 | 1016.9 |
| 20260510112514 | 47 | 259 | 0.0 | 3.0 | 0.00 | 0.00 | 0.00 | 69 | 1016.9 |
| 20260510112041 | 47 | 258 | 2.0 | 3.0 | 0.00 | 0.00 | 0.00 | 68 | 1016.9 |
| 20260510111557 | 47 | 287 | 2.0 | 3.0 | 0.00 | 0.00 | 0.00 | 69 | 1016.9 |
| 20260510111018 | 48 | 277 | 1.0 | 3.0 | 0.00 | 0.00 | 0.00 | 69 | 1016.9 |
| 20260510110529 | 48 | 223 | 2.0 | 4.0 | 0.00 | 0.00 | 0.00 | 69 | 1016.9 |
| 20260510110112 | 48 | 248 | 2.0 | 4.0 | 0.00 | 0.00 | 0.00 | 69 | 1017.0 |
| 20260510105542 | 48 | 261 | 2.0 | 3.0 | 0.00 | 0.00 | 0.00 | 69 | 1017.1 |
| 20260510105031 | 48 | 273 | 1.0 | 3.0 | 0.00 | 0.00 | 0.00 | 69 | 1017.0 |
| 20260510104619 | 48 | 263 | 2.0 | 4.0 | 0.00 | 0.00 | 0.00 | 69 | 1017.0 |
| 20260510104037 | 48 | 263 | 2.0 | 4.0 | 0.00 | 0.00 | 0.00 | 69 | 1017.1 |
| 20260510103524 | 48 | 286 | 2.0 | 3.0 | 0.00 | 0.00 | 0.00 | 68 | 1016.9 |
| 20260510103108 | 48 | 246 | 1.0 | 4.0 | 0.00 | 0.00 | 0.00 | 68 | 1017.1 |
| 20260510102525 | 48 | 238 | 2.0 | 4.0 | 0.00 | 0.00 | 0.00 | 69 | 1017.1 |
| 20260510102021 | 48 | 268 | 1.0 | 3.0 | 0.00 | 0.00 | 0.00 | 67 | 1017.2 |
| 20260510101619 | 48 | 261 | 1.0 | 3.0 | 0.00 | 0.00 | 0.00 | 68 | 1017.2 |
| 20260510101030 | 49 | 257 | 2.0 | 3.0 | 0.00 | 0.00 | 0.00 | 67 | 1017.2 |
| 20260510100538 | 49 | 244 | 0.0 | 3.0 | 0.00 | 0.00 | 0.00 | 66 | 1017.1 |
| 20260510100128 | 49 | 236 | 2.0 | 3.0 | 0.00 | 0.00 | 0.00 | 66 | 1017.2 |
| 20260510095538 | 49 | 251 | 2.0 | 3.0 | 0.00 | 0.00 | 0.00 | 66 | 1017.1 |
| 20260510095040 | 49 | 253 | 2.0 | 3.0 | 0.00 | 0.00 | 0.00 | 65 | 1017.1 |
| 20260510094558 | 50 | 249 | 2.0 | 3.0 | 0.00 | 0.00 | 0.00 | 64 | 1017.1 |
| 20260510094014 | 50 | 254 | 1.0 | 3.0 | 0.00 | 0.00 | 0.00 | 63 | 1017.2 |
| 20260510093533 | 50 | 261 | 2.0 | 3.0 | 0.00 | 0.00 | 0.00 | 61 | 1017.3 |
| 20260510093049 | 50 | 269 | 1.0 | 3.0 | 0.00 | 0.00 | 0.00 | 64 | 1017.3 |
| 20260510092527 | 50 | 264 | 1.0 | 3.0 | 0.00 | 0.00 | 0.00 | 65 | 1017.3 |
| 20260510092032 | 50 | 258 | 1.0 | 3.0 | 0.00 | 0.00 | 0.00 | 65 | 1017.3 |
| 20260510091554 | 50 | 269 | 1.0 | 3.0 | 0.00 | 0.00 | 0.00 | 65 | 1017.4 |
| 20260510091045 | 50 | 286 | 2.0 | 3.0 | 0.00 | 0.00 | 0.00 | 65 | 1017.4 |
| 20260510090541 | 50 | 264 | 1.0 | 3.0 | 0.00 | 0.00 | 0.00 | 64 | 1017.5 |
| 20260510090125 | 50 | 249 | 2.0 | 4.0 | 0.00 | 0.00 | 0.00 | 63 | 1017.5 |
| 20260510085542 | 50 | 240 | 2.0 | 4.0 | 0.00 | 0.00 | 0.00 | 63 | 1017.3 |
| 20260510085041 | 50 | 242 | 3.0 | 4.0 | 0.00 | 0.00 | 0.00 | 63 | 1017.4 |
| 20260510084621 | 50 | 242 | 2.0 | 4.0 | 0.00 | 0.00 | 0.00 | 63 | 1017.3 |
| 20260510084033 | 50 | 239 | 2.0 | 4.0 | 0.00 | 0.00 | 0.00 | 64 | 1017.4 |
| 20260510083534 | 50 | 266 | 1.0 | 4.0 | 0.00 | 0.00 | 0.00 | 63 | 1017.4 |
| 20260510083122 | 50 | 253 | 2.0 | 4.0 | 0.00 | 0.00 | 0.00 | 63 | 1017.2 |
| 20260510082539 | 51 | 242 | 2.0 | 4.0 | 0.00 | 0.00 | 0.00 | 62 | 1017.2 |
| 20260510082021 | 51 | 271 | 2.0 | 4.0 | 0.00 | 0.00 | 0.00 | 62 | 1017.2 |
| 20260510081621 | 51 | 264 | 1.0 | 3.0 | 0.00 | 0.00 | 0.00 | 61 | 1017.3 |
| 20260510081040 | 52 | 252 | 1.0 | 4.0 | 0.00 | 0.00 | 0.00 | 60 | 1017.3 |
| 20260510080536 | 52 | 232 | 2.0 | 4.0 | 0.00 | 0.00 | 0.00 | 60 | 1017.3 |
| 20260510080114 | 52 | 236 | 2.0 | 4.0 | 0.00 | 0.00 | 0.00 | 59 | 1017.5 |
| 20260510075536 | 52 | 241 | 2.0 | 5.0 | 0.00 | 0.00 | 0.00 | 59 | 1017.4 |
| 20260510075033 | 52 | 200 | 3.0 | 5.0 | 0.00 | 0.00 | 0.00 | 60 | 1017.3 |
| 20260510074609 | 52 | 250 | 2.0 | 4.0 | 0.00 | 0.00 | 0.00 | 60 | 1017.3 |
| 20260510074018 | 52 | 264 | 2.0 | 4.0 | 0.00 | 0.00 | 0.00 | 61 | 1017.3 |
| 20260510073520 | 52 | 248 | 2.0 | 4.0 | 0.00 | 0.00 | 0.00 | 60 | 1017.3 |
| 20260510073122 | 52 | 244 | 2.0 | 4.0 | 0.00 | 0.00 | 0.00 | 59 | 1017.3 |
| 20260510072515 | 52 | 245 | 2.0 | 4.0 | 0.00 | 0.00 | 0.00 | 59 | 1017.4 |
| 20260510072040 | 53 | 238 | 2.0 | 4.0 | 0.00 | 0.00 | 0.00 | 58 | 1017.4 |
| 20260510071637 | 53 | 257 | 2.0 | 4.0 | 0.00 | 0.00 | 0.00 | 58 | 1017.4 |
| 20260510071025 | 53 | 264 | 1.0 | 3.0 | 0.00 | 0.00 | 0.00 | 56 | 1017.2 |
| 20260510070537 | 53 | 242 | 2.0 | 4.0 | 0.00 | 0.00 | 0.00 | 56 | 1017.2 |
| 20260510070141 | 54 | 225 | 2.0 | 5.0 | 0.00 | 0.00 | 0.00 | 56 | 1017.2 |
| 20260510065521 | 54 | 238 | 2.0 | 5.0 | 0.00 | 0.00 | 0.00 | 57 | 1017.2 |
| 20260510065037 | 54 | 247 | 2.0 | 4.0 | 0.00 | 0.00 | 0.00 | 55 | 1017.2 |
| 20260510064637 | 55 | 236 | 2.0 | 4.0 | 0.00 | 0.00 | 0.00 | 54 | 1017.3 |
| 20260510064024 | 55 | 288 | 1.0 | 3.0 | 0.00 | 0.00 | 0.00 | 53 | 1017.3 |
| 20260510063530 | 54 | 260 | 1.0 | 3.0 | 0.00 | 0.00 | 0.00 | 57 | 1017.3 |
| 20260510063116 | 54 | 229 | 2.0 | 4.0 | 0.00 | 0.00 | 0.00 | 56 | 1017.3 |
| 20260510062524 | 54 | 244 | 2.0 | 4.0 | 0.00 | 0.00 | 0.00 | 55 | 1017.3 |
| 20260510062029 | 55 | 258 | 2.0 | 4.0 | 0.00 | 0.00 | 0.00 | 55 | 1017.3 |
| 20260510061605 | 55 | 240 | 2.0 | 4.0 | 0.00 | 0.00 | 0.00 | 55 | 1017.4 |
| 20260510061030 | 55 | 229 | 3.0 | 4.0 | 0.00 | 0.00 | 0.00 | 54 | 1017.4 |
| 20260510060525 | 55 | 244 | 2.0 | 4.0 | 0.00 | 0.00 | 0.00 | 54 | 1017.4 |
| 20260510060110 | 55 | 225 | 2.0 | 4.0 | 0.00 | 0.00 | 0.00 | 55 | 1017.4 |
| 20260510055536 | 56 | 249 | 3.0 | 4.0 | 0.00 | 0.00 | 0.00 | 54 | 1017.3 |
| 20260510055018 | 56 | 265 | 2.0 | 4.0 | 0.00 | 0.00 | 0.00 | 52 | 1017.3 |
| 20260510054647 | 56 | 283 | 2.0 | 5.0 | 0.00 | 0.00 | 0.00 | 53 | 1017.3 |
| 20260510054049 | 56 | 248 | 3.0 | 5.0 | 0.00 | 0.00 | 0.00 | 53 | 1017.2 |
| 20260510053537 | 56 | 253 | 3.0 | 5.0 | 0.00 | 0.00 | 0.00 | 54 | 1017.2 |
| 20260510053155 | 57 | 235 | 3.0 | 5.0 | 0.00 | 0.00 | 0.00 | 53 | 1017.0 |
| 20260510052522 | 57 | 237 | 3.0 | 5.0 | 0.00 | 0.00 | 0.00 | 52 | 1017.1 |
| 20260510052045 | 57 | 239 | 3.0 | 5.0 | 0.00 | 0.00 | 0.00 | 51 | 1017.1 |
| 20260510051629 | 57 | 230 | 3.0 | 5.0 | 0.00 | 0.00 | 0.00 | 52 | 1017.1 |
| 20260510051042 | 58 | 240 | 3.0 | 5.0 | 0.00 | 0.00 | 0.00 | 51 | 1017.2 |
| 20260510050544 | 58 | 247 | 3.0 | 5.0 | 0.00 | 0.00 | 0.00 | 50 | 1017.3 |
| 20260510050141 | 58 | 248 | 3.0 | 5.0 | 0.00 | 0.00 | 0.00 | 50 | 1017.1 |
| 20260510045537 | 59 | 235 | 3.0 | 5.0 | 0.00 | 0.00 | 0.00 | 49 | 1017.1 |
| 20260510045031 | 60 | 257 | 1.0 | 3.0 | 0.00 | 0.00 | 0.00 | 47 | 1017.2 |
| 20260510044628 | 60 | 234 | 0.0 | 4.0 | 0.00 | 0.00 | 0.00 | 47 | 1017.3 |
| 20260510044041 | 60 | 241 | 2.0 | 4.0 | 0.00 | 0.00 | 0.00 | 46 | 1017.2 |
| 20260510043536 | 60 | 223 | 2.0 | 4.0 | 0.00 | 0.00 | 0.00 | 47 | 1017.1 |
| 20260510043113 | 61 | 243 | 0.0 | 3.0 | 0.00 | 0.00 | 0.00 | 45 | 1017.1 |
| 20260510042538 | 61 | 215 | 1.0 | 3.0 | 0.00 | 0.00 | 0.00 | 45 | 1017.0 |
| 20260510042050 | 61 | 240 | 1.0 | 2.0 | 0.00 | 0.00 | 0.00 | 45 | 1016.9 |
| 20260510041642 | 61 | 240 | 1.0 | 2.0 | 0.00 | 0.00 | 0.00 | 46 | 1016.8 |
| 20260510041025 | 61 | 229 | 0.0 | 3.0 | 0.00 | 0.00 | 0.00 | 44 | 1016.8 |
| 20260510040520 | 62 | 229 | 0.0 | 3.0 | 0.00 | 0.00 | 0.00 | 44 | 1016.8 |
| 20260510040157 | 62 | 228 | 1.0 | 3.0 | 0.00 | 0.00 | 0.00 | 43 | 1016.7 |
| 20260510035530 | 63 | 226 | 2.0 | 3.0 | 0.00 | 0.00 | 0.00 | 43 | 1016.8 |
| 20260510035041 | 63 | 201 | 0.0 | 1.0 | 0.00 | 0.00 | 0.00 | 40 | 1016.7 |
| 20260510034644 | 64 | 201 | 0.0 | 2.0 | 0.00 | 0.00 | 0.00 | 40 | 1016.7 |
| 20260510034037 | 64 | 183 | 0.0 | 2.0 | 0.00 | 0.00 | 0.00 | 39 | 1016.9 |
| 20260510033539 | 64 | 183 | 0.0 | 2.0 | 0.00 | 0.00 | 0.00 | 39 | 1016.8 |
| 20260510033123 | 65 | 265 | 0.0 | 1.0 | 0.00 | 0.00 | 0.00 | 39 | 1016.7 |
| 20260510032536 | 65 | 265 | 0.0 | 3.0 | 0.00 | 0.00 | 0.00 | 38 | 1016.7 |
| 20260510032041 | 65 | 194 | 0.0 | 3.0 | 0.00 | 0.00 | 0.00 | 40 | 1016.6 |
| 20260510031615 | 66 | 196 | 1.0 | 2.0 | 0.00 | 0.00 | 0.00 | 38 | 1016.5 |
| 20260510031020 | 66 | 192 | 0.0 | 2.0 | 0.00 | 0.00 | 0.00 | 38 | 1016.5 |
| 20260510030542 | 66 | 192 | 0.0 | 2.0 | 0.00 | 0.00 | 0.00 | 37 | 1016.5 |
| 20260510030103 | 67 | 169 | 0.0 | 3.0 | 0.00 | 0.00 | 0.00 | 37 | 1016.6 |
| 20260510025520 | 67 | 169 | 0.0 | 4.0 | 0.00 | 0.00 | 0.00 | 36 | 1016.4 |
| 20260510025041 | 67 | 198 | 1.0 | 4.0 | 0.00 | 0.00 | 0.00 | 36 | 1016.5 |
| 20260510024632 | 68 | 242 | 0.0 | 2.0 | 0.00 | 0.00 | 0.00 | 37 | 1016.4 |
| 20260510024015 | 68 | 173 | 0.0 | 1.0 | 0.00 | 0.00 | 0.00 | 37 | 1016.6 |
| 20260510023520 | 68 | 169 | 0.0 | 2.0 | 0.00 | 0.00 | 0.00 | 36 | 1016.5 |
| 20260510023130 | 69 | 169 | 0.0 | 2.0 | 0.00 | 0.00 | 0.00 | 35 | 1016.6 |
| 20260510022515 | 69 | 205 | 0.0 | 5.0 | 0.00 | 0.00 | 0.00 | 36 | 1016.6 |
| 20260510022022 | 69 | 162 | 0.0 | 5.0 | 0.00 | 0.00 | 0.00 | 34 | 1016.7 |
| 20260510021607 | 69 | 128 | 0.0 | 5.0 | 0.00 | 0.00 | 0.00 | 35 | 1016.7 |
| 20260510021041 | 70 | 72 | 0.0 | 2.0 | 0.00 | 0.00 | 0.00 | 34 | 1016.7 |
| 20260510020533 | 70 | 181 | 0.0 | 2.0 | 0.00 | 0.00 | 0.00 | 33 | 1016.6 |
| 20260510020210 | 70 | 332 | 0.0 | 4.0 | 0.00 | 0.00 | 0.00 | 34 | 1016.7 |
| 20260510015520 | 71 | 119 | 0.0 | 4.0 | 0.00 | 0.00 | 0.00 | 35 | 1016.7 |
| 20260510015031 | 71 | 71 | 0.0 | 1.0 | 0.00 | 0.00 | 0.00 | 34 | 1016.8 |
| 20260510014657 | 71 | 352 | 0.0 | 2.0 | 0.00 | 0.00 | 0.00 | 34 | 1017.1 |
| 20260510014041 | 71 | 352 | 0.0 | 4.0 | 0.00 | 0.00 | 0.00 | 33 | 1017.1 |
| 20260510013525 | 71 | 57 | 0.0 | 4.0 | 0.00 | 0.00 | 0.00 | 35 | 1017.2 |
| 20260510013132 | 71 | 54 | 0.0 | 4.0 | 0.00 | 0.00 | 0.00 | 34 | 1017.1 |
| 20260510012523 | 71 | 97 | 0.0 | 3.0 | 0.00 | 0.00 | 0.00 | 33 | 1017.0 |
| 20260510012031 | 72 | 56 | 0.0 | 2.0 | 0.00 | 0.00 | 0.00 | 33 | 1016.9 |
| 20260510011630 | 72 | 143 | 0.0 | 3.0 | 0.00 | 0.00 | 0.00 | 33 | 1017.1 |
| 20260510011032 | 72 | 135 | 0.0 | 3.0 | 0.00 | 0.00 | 0.00 | 32 | 1017.1 |
| 20260510010528 | 72 | 334 | 0.0 | 2.0 | 0.00 | 0.00 | 0.00 | 32 | 1017.0 |
| 20260510010130 | 72 | 49 | 0.0 | 3.0 | 0.00 | 0.00 | 0.00 | 34 | 1017.1 |
| 20260510005544 | 72 | 82 | 0.0 | 3.0 | 0.00 | 0.00 | 0.00 | 32 | 1017.1 |
| 20260510005024 | 72 | 59 | 0.0 | 4.0 | 0.00 | 0.00 | 0.00 | 31 | 1017.1 |
| 20260510004630 | 72 | 302 | 0.0 | 3.0 | 0.00 | 0.00 | 0.00 | 31 | 1017.2 |
| 20260510004040 | 72 | 86 | 1.0 | 5.0 | 0.00 | 0.00 | 0.00 | 30 | 1017.2 |
| 20260510003525 | 73 | 146 | 1.0 | 5.0 | 0.00 | 0.00 | 0.00 | 30 | 1017.3 |
| 20260510003158 | 73 | 44 | 1.0 | 3.0 | 0.00 | 0.00 | 0.00 | 30 | 1017.3 |
| 20260510002519 | 73 | 275 | 1.0 | 3.0 | 0.00 | 0.00 | 0.00 | 31 | 1017.2 |
| 20260510002041 | 73 | 352 | 0.0 | 3.0 | 0.00 | 0.00 | 0.00 | 31 | 1017.3 |
| 20260510001615 | 73 | 63 | 0.0 | 5.0 | 0.00 | 0.00 | 0.00 | 30 | 1017.3 |
| 20260510001036 | 73 | 199 | 1.0 | 5.0 | 0.00 | 0.00 | 0.00 | 29 | 1017.3 |
| 20260510000541 | 73 | 187 | 1.0 | 4.0 | 0.00 | 0.00 | 0.00 | 30 | 1017.3 |
| 20260510000110 | 73 | 57 | 1.0 | 6.0 | 0.00 | 0.00 | 0.00 | 31 | 1017.2 |
| 20260509235536 | 73 | 37 | 2.0 | 6.0 | 0.00 | 0.00 | 0.00 | 29 | 1017.3 |
| 20260509235042 | 74 | 22 | 1.0 | 3.0 | 0.00 | 0.00 | 0.00 | 30 | 1017.3 |
| 20260509234640 | 74 | 28 | 1.0 | 3.0 | 0.00 | 0.00 | 0.00 | 29 | 1017.2 |
| 20260509234041 | 74 | 24 | 1.0 | 3.0 | 0.00 | 0.00 | 0.00 | 28 | 1017.3 |
| 20260509233522 | 74 | 17 | 1.0 | 3.0 | 0.00 | 0.00 | 0.00 | 30 | 1017.4 |
| 20260509233117 | 74 | 53 | 1.0 | 5.0 | 0.00 | 0.00 | 0.00 | 31 | 1017.5 |
| 20260509232533 | 74 | 12 | 1.0 | 8.0 | 0.00 | 0.00 | 0.00 | 29 | 1017.5 |
| 20260509232023 | 75 | 109 | 3.0 | 7.0 | 0.00 | 0.00 | 0.00 | 28 | 1017.7 |
| 20260509231615 | 75 | 55 | 1.0 | 4.0 | 0.00 | 0.00 | 0.00 | 29 | 1017.7 |
| 20260509231041 | 75 | 126 | 1.0 | 4.0 | 0.00 | 0.00 | 0.00 | 30 | 1017.7 |
| 20260509230519 | 75 | 140 | 1.0 | 8.0 | 0.00 | 0.00 | 0.00 | 29 | 1017.8 |
| 20260509230132 | 75 | 205 | 2.0 | 8.0 | 0.00 | 0.00 | 0.00 | 27 | 1017.7 |
| 20260509225521 | 75 | 60 | 1.0 | 7.0 | 0.00 | 0.00 | 0.00 | 26 | 1018.0 |
| 20260509225025 | 75 | 59 | 1.0 | 7.0 | 0.00 | 0.00 | 0.00 | 25 | 1018.1 |
| 20260509224641 | 75 | 161 | 1.0 | 9.0 | 0.00 | 0.00 | 0.00 | 27 | 1018.1 |
| 20260509224033 | 75 | 88 | 2.0 | 9.0 | 0.00 | 0.00 | 0.00 | 24 | 1018.2 |
| 20260509223524 | 75 | 61 | 1.0 | 5.0 | 0.00 | 0.00 | 0.00 | 26 | 1018.3 |
| 20260509223141 | 76 | 13 | 1.0 | 4.0 | 0.00 | 0.00 | 0.00 | 24 | 1018.3 |
| 20260509222541 | 75 | 331 | 2.0 | 7.0 | 0.00 | 0.00 | 0.00 | 24 | 1018.3 |
| 20260509222036 | 75 | 190 | 2.0 | 7.0 | 0.00 | 0.00 | 0.00 | 25 | 1018.2 |
| 20260509221559 | 75 | 334 | 2.0 | 7.0 | 0.00 | 0.00 | 0.00 | 25 | 1018.3 |
| 20260509221025 | 75 | 352 | 1.0 | 5.0 | 0.00 | 0.00 | 0.00 | 25 | 1018.3 |
| 20260509220517 | 75 | 265 | 2.0 | 6.0 | 0.00 | 0.00 | 0.00 | 25 | 1018.4 |
| 20260509220112 | 75 | 12 | 2.0 | 6.0 | 0.00 | 0.00 | 0.00 | 25 | 1018.4 |
| 20260509215536 | 75 | 337 | 2.0 | 7.0 | 0.00 | 0.00 | 0.00 | 25 | 1018.4 |
| 20260509215019 | 75 | 113 | 3.0 | 7.0 | 0.00 | 0.00 | 0.00 | 25 | 1018.5 |
| 20260509214641 | 75 | 28 | 1.0 | 4.0 | 0.00 | 0.00 | 0.00 | 25 | 1018.5 |
| 20260509214034 | 75 | 30 | 1.0 | 8.0 | 0.00 | 0.00 | 0.00 | 25 | 1018.5 |
| 20260509213530 | 74 | 75 | 3.0 | 8.0 | 0.00 | 0.00 | 0.00 | 25 | 1018.7 |
| 20260509213131 | 75 | 74 | 1.0 | 4.0 | 0.00 | 0.00 | 0.00 | 25 | 1018.7 |
| 20260509212539 | 74 | 40 | 2.0 | 8.0 | 0.00 | 0.00 | 0.00 | 25 | 1018.6 |
| 20260509212032 | 74 | 25 | 2.0 | 8.0 | 0.00 | 0.00 | 0.00 | 25 | 1018.6 |
| 20260509211630 | 75 | 132 | 2.0 | 5.0 | 0.00 | 0.00 | 0.00 | 25 | 1018.7 |
| 20260509211025 | 74 | 49 | 2.0 | 5.0 | 0.00 | 0.00 | 0.00 | 26 | 1018.8 |
| 20260509210539 | 75 | 105 | 1.0 | 7.0 | 0.00 | 0.00 | 0.00 | 26 | 1018.7 |
| 20260509210130 | 75 | 113 | 2.0 | 7.0 | 0.00 | 0.00 | 0.00 | 25 | 1018.8 |
| 20260509205519 | 75 | 92 | 2.0 | 6.0 | 0.00 | 0.00 | 0.00 | 25 | 1018.8 |
| 20260509205040 | 75 | 84 | 2.0 | 10.0 | 0.00 | 0.00 | 0.00 | 27 | 1018.8 |
| 20260509204608 | 75 | 248 | 2.0 | 10.0 | 0.00 | 0.00 | 0.00 | 24 | 1018.8 |
| 20260509204041 | 75 | 150 | 3.0 | 8.0 | 0.00 | 0.00 | 0.00 | 25 | 1018.9 |
| 20260509203541 | 75 | 23 | 2.0 | 8.0 | 0.00 | 0.00 | 0.00 | 24 | 1018.9 |
| 20260509203113 | 75 | 78 | 2.0 | 9.0 | 0.00 | 0.00 | 0.00 | 25 | 1018.9 |
| 20260509202531 | 75 | 103 | 1.0 | 9.0 | 0.00 | 0.00 | 0.00 | 24 | 1018.8 |
| 20260509202032 | 75 | 144 | 1.0 | 4.0 | 0.00 | 0.00 | 0.00 | 25 | 1018.8 |
| 20260509201609 | 74 | 360 | 1.0 | 4.0 | 0.00 | 0.00 | 0.00 | 26 | 1018.9 |
| 20260509201041 | 74 | 9 | 2.0 | 4.0 | 0.00 | 0.00 | 0.00 | 25 | 1019.0 |
| 20260509200529 | 74 | 44 | 2.0 | 6.0 | 0.00 | 0.00 | 0.00 | 24 | 1019.0 |
| 20260509200135 | 74 | 54 | 2.0 | 6.0 | 0.00 | 0.00 | 0.00 | 24 | 1018.9 |
| 20260509195522 | 74 | 130 | 2.0 | 6.0 | 0.00 | 0.00 | 0.00 | 23 | 1018.9 |
| 20260509195042 | 74 | 104 | 2.0 | 5.0 | 0.00 | 0.00 | 0.00 | 24 | 1018.9 |
| 20260509194609 | 73 | 333 | 2.0 | 8.0 | 0.00 | 0.00 | 0.00 | 25 | 1019.0 |
| 20260509194031 | 73 | 44 | 3.0 | 9.0 | 0.00 | 0.00 | 0.00 | 25 | 1019.0 |
| 20260509193545 | 72 | 39 | 1.0 | 9.0 | 0.00 | 0.00 | 0.00 | 25 | 1019.1 |
| 20260509193130 | 73 | 157 | 2.0 | 7.0 | 0.00 | 0.00 | 0.00 | 25 | 1018.9 |
| 20260509192524 | 73 | 197 | 2.0 | 8.0 | 0.00 | 0.00 | 0.00 | 25 | 1019.1 |
| 20260509192042 | 73 | 80 | 1.0 | 5.0 | 0.00 | 0.00 | 0.00 | 27 | 1019.1 |
| 20260509191611 | 73 | 40 | 1.0 | 4.0 | 0.00 | 0.00 | 0.00 | 27 | 1019.1 |
| 20260509191051 | 73 | 51 | 2.0 | 5.0 | 0.00 | 0.00 | 0.00 | 28 | 1019.2 |
| 20260509190532 | 73 | 78 | 1.0 | 6.0 | 0.00 | 0.00 | 0.00 | 27 | 1019.2 |
| 20260509190141 | 73 | 146 | 2.0 | 6.0 | 0.00 | 0.00 | 0.00 | 28 | 1019.2 |
| 20260509185533 | 72 | 99 | 2.0 | 7.0 | 0.00 | 0.00 | 0.00 | 29 | 1019.2 |
| 20260509185037 | 73 | 145 | 2.0 | 5.0 | 0.00 | 0.00 | 0.00 | 28 | 1019.3 |
| 20260509184707 | 72 | 14 | 2.0 | 7.0 | 0.00 | 0.00 | 0.00 | 28 | 1019.2 |
| 20260509184029 | 72 | 188 | 1.0 | 7.0 | 0.00 | 0.00 | 0.00 | 29 | 1019.3 |
| 20260509183522 | 72 | 215 | 1.0 | 6.0 | 0.00 | 0.00 | 0.00 | 28 | 1019.3 |
| 20260509183204 | 71 | 333 | 1.0 | 4.0 | 0.00 | 0.00 | 0.00 | 25 | 1019.2 |
| 20260509182541 | 71 | 148 | 2.0 | 5.0 | 0.00 | 0.00 | 0.00 | 24 | 1019.3 |
| 20260509182017 | 71 | 92 | 2.0 | 6.0 | 0.00 | 0.00 | 0.00 | 28 | 1019.4 |
| 20260509181718 | 70 | 83 | 2.0 | 6.0 | 0.00 | 0.00 | 0.00 | 29 | 1019.4 |
| 20260509181041 | 70 | 227 | 1.0 | 4.0 | 0.00 | 0.00 | 0.00 | 28 | 1019.6 |
| 20260509180532 | 70 | 185 | 0.0 | 3.0 | 0.00 | 0.00 | 0.00 | 29 | 1019.7 |
| 20260509180157 | 69 | 341 | 1.0 | 3.0 | 0.00 | 0.00 | 0.00 | 31 | 1019.6 |
| 20260509175600 | 69 | 350 | 1.0 | 3.0 | 0.00 | 0.00 | 0.00 | 32 | 1019.5 |
| 20260509175020 | 69 | 346 | 1.0 | 4.0 | 0.00 | 0.00 | 0.00 | 33 | 1019.5 |
| 20260509174649 | 68 | 36 | 0.0 | 4.0 | 0.00 | 0.00 | 0.00 | 33 | 1019.5 |
| 20260509174021 | 68 | 152 | 1.0 | 4.0 | 0.00 | 0.00 | 0.00 | 34 | 1019.5 |
| 20260509173524 | 68 | 73 | 0.0 | 6.0 | 0.00 | 0.00 | 0.00 | 35 | 1019.5 |
| 20260509173153 | 67 | 190 | 3.0 | 5.0 | 0.00 | 0.00 | 0.00 | 35 | 1019.5 |
| 20260509172521 | 67 | 248 | 1.0 | 4.0 | 0.00 | 0.00 | 0.00 | 34 | 1019.8 |
| 20260509172032 | 67 | 5 | 0.0 | 4.0 | 0.00 | 0.00 | 0.00 | 38 | 1019.7 |
| 20260509171621 | 66 | 12 | 1.0 | 4.0 | 0.00 | 0.00 | 0.00 | 36 | 1019.8 |
| 20260509171013 | 66 | 132 | 1.0 | 5.0 | 0.00 | 0.00 | 0.00 | 36 | 1019.9 |
| 20260509170536 | 66 | 161 | 1.0 | 5.0 | 0.00 | 0.00 | 0.00 | 39 | 1019.8 |
| 20260509170146 | 65 | 54 | 1.0 | 6.0 | 0.00 | 0.00 | 0.00 | 39 | 1019.9 |
| 20260509165539 | 65 | 154 | 2.0 | 6.0 | 0.00 | 0.00 | 0.00 | 38 | 1019.9 |
| 20260509165032 | 64 | 132 | 1.0 | 4.0 | 0.00 | 0.00 | 0.00 | 40 | 1019.9 |
| 20260509164533 | 64 | 340 | 0.0 | 4.0 | 0.00 | 0.00 | 0.00 | 37 | 1020.1 |
| 20260509164020 | 64 | 347 | 1.0 | 4.0 | 0.00 | 0.00 | 0.00 | 37 | 1020.1 |
| 20260509163539 | 64 | 135 | 1.0 | 4.0 | 0.00 | 0.00 | 0.00 | 39 | 1020.1 |
| 20260509163138 | 63 | 146 | 0.0 | 3.0 | 0.00 | 0.00 | 0.00 | 40 | 1020.0 |
| 20260509162525 | 62 | 187 | 0.0 | 6.0 | 0.00 | 0.00 | 0.00 | 39 | 1020.1 |
| 20260509162029 | 62 | 159 | 2.0 | 5.0 | 0.00 | 0.00 | 0.00 | 39 | 1020.3 |
| 20260509161538 | 62 | 127 | 1.0 | 3.0 | 0.00 | 0.00 | 0.00 | 40 | 1020.2 |
| 20260509161020 | 62 | 117 | 1.0 | 3.0 | 0.00 | 0.00 | 0.00 | 42 | 1020.3 |
| 20260509160541 | 61 | 135 | 1.0 | 3.0 | 0.00 | 0.00 | 0.00 | 43 | 1020.4 |
| 20260509160149 | 60 | 194 | 1.0 | 3.0 | 0.00 | 0.00 | 0.00 | 44 | 1020.2 |
| 20260509155528 | 59 | 107 | 0.0 | 3.0 | 0.00 | 0.00 | 0.00 | 46 | 1020.3 |
| 20260509155034 | 58 | 79 | 0.0 | 3.0 | 0.00 | 0.00 | 0.00 | 47 | 1020.4 |
| 20260509154701 | 58 | 144 | 0.0 | 4.0 | 0.00 | 0.00 | 0.00 | 49 | 1020.4 |
| 20260509154028 | 57 | 305 | 1.0 | 6.0 | 0.00 | 0.00 | 0.00 | 47 | 1020.4 |
| 20260509153514 | 56 | 78 | 1.0 | 6.0 | 0.00 | 0.00 | 0.00 | 48 | 1020.2 |
| 20260509153138 | 56 | 102 | 1.0 | 3.0 | 0.00 | 0.00 | 0.00 | 49 | 1020.4 |